Location: Newark
(51.4502°N, 2.1514°W)
Time: 08:16:14
(UTC+00:00)

ISS - Visible Passes

Search period start: 20 September 2020 00:00
Search period end: 30 September 2020 00:00
Orbit: 419 x 420 km, 51.6° (Epoch: 20 September)

Date Brightness Start Highest point End Pass type
(mag) Time Alt. Az. Time Alt. Az. Time Alt. Az.
20 Sep -3.3 19:39:47 10° SW 19:43:00 42° SSE 19:43:52 34° ESE visible
20 Sep -0.8 21:16:19 10° W 21:16:51 14° W 21:16:51 14° W visible
21 Sep -2.8 18:52:40 10° SW 18:55:42 31° SSE 18:58:29 12° E visible
21 Sep -3.0 20:28:55 10° WSW 20:31:28 48° WSW 20:31:28 48° WSW visible
22 Sep -3.8 19:41:32 10° WSW 19:44:54 71° SSE 19:45:58 39° E visible
22 Sep -0.8 21:18:20 10° W 21:18:57 14° W 21:18:57 14° W visible
23 Sep -3.6 18:54:12 10° WSW 18:57:31 57° SSE 19:00:25 13° E visible
23 Sep -2.7 20:30:54 10° W 20:33:23 45° W 20:33:23 45° W visible
24 Sep -3.8 19:43:28 10° W 19:46:51 88° N 19:47:46 46° E visible
24 Sep -0.6 21:20:19 10° W 21:20:43 13° W 21:20:43 13° W visible
25 Sep -3.8 18:56:01 10° WSW 18:59:25 84° S 19:02:06 15° E visible
25 Sep -2.3 20:32:52 10° W 20:35:03 37° W 20:35:03 37° W visible
26 Sep -3.8 19:45:24 10° W 19:48:48 87° N 19:49:22 59° E visible
26 Sep -0.4 21:22:16 10° W 21:22:19 10° W 21:22:19 10° W visible
27 Sep -3.8 18:57:57 10° W 19:01:20 85° N 19:03:40 19° E visible
27 Sep -1.9 20:34:46 10° W 20:36:37 29° W 20:36:37 29° W visible
28 Sep -3.9 19:47:18 10° W 19:50:40 74° SSW 19:50:55 69° SSE visible
29 Sep -3.8 18:59:48 10° W 19:03:12 86° S 19:05:13 22° ESE visible
29 Sep -1.4 20:36:43 10° W 20:38:10 21° W 20:38:10 21° W visible
